TimeCET,TemperatureF,Dew PointF,Humidity,Sea Level PressureIn,VisibilityMPH,Wind Direction,Wind SpeedMPH,Gust SpeedMPH,PrecipitationIn,Events,Conditions,WindDirDegrees,DateUTC
12:25 AM,30.2,14.0,51,29.98,6.2,ENE,17.3,-,N/A,,Overcast,70,2013-03-23 23:25:00
12:55 AM,28.4,14.0,55,29.95,6.2,ENE,17.3,-,N/A,,Overcast,70,2013-03-23 23:55:00
1:00 AM,29,14,40,29.97,22,ENE,17.9,,,,Partly Cloudy,70,2013-03-24 00:00:00
1:25 AM,28.4,14.0,55,29.95,6.2,ENE,19.6,-,N/A,,Overcast,70,2013-03-24 00:25:00
1:55 AM,28.4,12.2,51,29.95,6.2,ENE,15.0,-,N/A,,Overcast,70,2013-03-24 00:55:00
2:25 AM,28.4,12.2,51,29.95,6.2,ENE,17.3,-,N/A,,Overcast,70,2013-03-24 01:25:00
2:55 AM,28.4,12.2,51,29.95,6.2,ENE,17.3,-,N/A,,Mostly Cloudy,70,2013-03-24 01:55:00
3:25 AM,28.4,12.2,51,29.95,6.2,ENE,18.4,-,N/A,,Overcast,70,2013-03-24 02:25:00
3:55 AM,28.4,12.2,51,29.95,6.2,East,16.1,-,N/A,,Mostly Cloudy,80,2013-03-24 02:55:00
3:59 AM,28.4,12.2,51,29.95,6.2,East,18.4,-,N/A,,Mostly Cloudy,80,2013-03-24 02:59:00
4:00 AM,28,11,36,29.95,22,ENE,17.9,,,,Scattered Clouds,70,2013-03-24 03:00:00
4:08 AM,28.4,12.2,51,29.95,6.2,ENE,18.4,-,N/A,,Mostly Cloudy,70,2013-03-24 03:08:00
4:12 AM,28.4,12.2,51,29.95,6.2,ENE,17.3,-,N/A,,Mostly Cloudy,70,2013-03-24 03:12:00
4:19 AM,28.4,12.2,51,29.95,6.2,ENE,16.1,-,N/A,,Mostly Cloudy,70,2013-03-24 03:19:00
4:25 AM,28.4,12.2,51,29.95,6.2,ENE,16.1,-,N/A,,Mostly Cloudy,70,2013-03-24 03:25:00
4:55 AM,26.6,10.4,51,29.95,6.2,East,16.1,27.6,N/A,,Overcast,80,2013-03-24 03:55:00
5:25 AM,26.6,10.4,51,29.95,6.2,ENE,17.3,-,N/A,,Overcast,70,2013-03-24 04:25:00
5:55 AM,26.6,10.4,51,29.95,6.2,ENE,16.1,29.9,N/A,,Scattered Clouds,70,2013-03-24 04:55:00
6:25 AM,26.6,10.4,51,29.95,6.2,ENE,18.4,31.1,N/A,,Overcast,70,2013-03-24 05:25:00
6:49 AM,26.6,10.4,51,29.95,6.2,ENE,16.1,29.9,N/A,,Overcast,70,2013-03-24 05:49:00
6:55 AM,26.6,10.4,51,29.95,6.2,ENE,18.4,29.9,N/A,,Overcast,70,2013-03-24 05:55:00
7:00 AM,26,10,36,29.97,25,East,17.9,,,,Partly Cloudy,80,2013-03-24 06:00:00
7:02 AM,26.6,10.4,51,29.95,6.2,ENE,18.4,-,N/A,,Mostly Cloudy,70,2013-03-24 06:02:00
7:10 AM,26.6,10.4,51,29.95,6.2,East,18.4,-,N/A,,Mostly Cloudy,80,2013-03-24 06:10:00
7:13 AM,26.6,8.6,47,29.95,6.2,ENE,18.4,-,N/A,,Mostly Cloudy,70,2013-03-24 06:13:00
7:25 AM,26.6,10.4,51,29.95,6.2,East,16.1,-,N/A,,Scattered Clouds,80,2013-03-24 06:25:00
7:38 AM,26.6,8.6,47,29.95,6.2,East,15.0,-,N/A,,Mostly Cloudy,80,2013-03-24 06:38:00
7:40 AM,26.6,8.6,47,29.95,6.2,East,15.0,-,N/A,,Mostly Cloudy,80,2013-03-24 06:40:00
7:55 AM,26.6,8.6,47,29.95,6.2,ENE,17.3,28.8,N/A,,Overcast,70,2013-03-24 06:55:00
8:25 AM,26.6,8.6,47,29.95,6.2,East,15.0,28.8,N/A,,Overcast,80,2013-03-24 07:25:00
8:40 AM,26.6,8.6,47,29.95,6.2,ENE,17.3,28.8,N/A,,Overcast,70,2013-03-24 07:40:00
8:55 AM,28.4,8.6,43,29.95,6.2,East,12.7,-,N/A,,Overcast,80,2013-03-24 07:55:00
9:25 AM,28.4,6.8,40,29.95,6.2,East,18.4,-,N/A,,Overcast,80,2013-03-24 08:25:00
9:37 AM,28.4,6.8,40,29.95,6.2,ENE,19.6,-,N/A,,Overcast,70,2013-03-24 08:37:00
9:55 AM,30.2,6.8,37,29.95,6.2,East,17.3,28.8,N/A,,Overcast,80,2013-03-24 08:55:00
10:00 AM,29,6,23,29.97,22,ENE,17.9,,,,Overcast,70,2013-03-24 09:00:00
10:25 AM,30.2,5.0,34,29.95,6.2,ENE,18.4,31.1,N/A,,Overcast,70,2013-03-24 09:25:00
10:55 AM,30.2,5.0,34,29.95,6.2,East,17.3,28.8,N/A,,Overcast,80,2013-03-24 09:55:00
11:25 AM,30.2,3.2,32,29.95,6.2,ENE,19.6,-,N/A,,Overcast,70,2013-03-24 10:25:00
11:55 AM,32.0,3.2,30,29.95,6.2,ENE,18.4,-,N/A,,Overcast,70,2013-03-24 10:55:00
12:25 PM,33.8,3.2,28,29.95,6.2,ENE,19.6,33.4,N/A,,Overcast,70,2013-03-24 11:25:00
12:55 PM,33.8,3.2,28,29.95,6.2,East,19.6,-,N/A,,Overcast,80,2013-03-24 11:55:00
1:00 PM,35,3,13,29.94,25,ENE,17.9,,,,Partly Cloudy,70,2013-03-24 12:00:00
1:25 PM,35.6,3.2,26,29.92,6.2,East,20.7,32.2,N/A,,Overcast,80,2013-03-24 12:25:00
1:55 PM,35.6,3.2,26,29.92,6.2,ENE,20.7,32.2,N/A,,Overcast,70,2013-03-24 12:55:00
2:25 PM,35.6,3.2,26,29.92,6.2,East,21.9,36.8,N/A,,Overcast,80,2013-03-24 13:25:00
2:35 PM,35.6,3.2,26,29.92,6.2,ENE,16.1,27.6,N/A,,Mostly Cloudy,70,2013-03-24 13:35:00
2:55 PM,35.6,1.4,24,29.92,6.2,East,21.9,33.4,N/A,,Overcast,80,2013-03-24 13:55:00
3:25 PM,37.4,3.2,24,29.92,6.2,ENE,18.4,-,N/A,,Overcast,70,2013-03-24 14:25:00
3:55 PM,37.4,1.4,22,29.92,6.2,ENE,19.6,-,N/A,,Overcast,70,2013-03-24 14:55:00
4:00 PM,37,2,11,29.92,28,ENE,22.4,,,,Overcast,70,2013-03-24 15:00:00
4:25 PM,37.4,3.2,24,29.89,6.2,ENE,20.7,-,N/A,,Overcast,70,2013-03-24 15:25:00
4:55 PM,37.4,5.0,26,29.89,6.2,ENE,19.6,-,N/A,,Overcast,60,2013-03-24 15:55:00
5:25 PM,37.4,6.8,28,29.92,6.2,ENE,16.1,-,N/A,,Overcast,70,2013-03-24 16:25:00
5:55 PM,35.6,6.8,30,29.92,6.2,ENE,18.4,-,N/A,,Mostly Cloudy,60,2013-03-24 16:55:00
6:25 PM,35.6,6.8,30,29.92,6.2,ENE,21.9,-,N/A,,Mostly Cloudy,70,2013-03-24 17:25:00
6:55 PM,35.6,6.8,30,29.92,6.2,ENE,18.4,-,N/A,,Mostly Cloudy,70,2013-03-24 17:55:00
7:00 PM,35,7,17,29.95,28,ENE,20.1,,,,Partly Cloudy,70,2013-03-24 18:00:00
7:25 PM,35.6,6.8,30,29.95,6.2,ENE,19.6,-,N/A,,Overcast,70,2013-03-24 18:25:00
7:55 PM,33.8,8.6,35,29.95,6.2,ENE,19.6,-,N/A,,Overcast,70,2013-03-24 18:55:00
8:25 PM,33.8,8.6,35,29.95,6.2,ENE,18.4,-,N/A,,Mostly Cloudy,70,2013-03-24 19:25:00
8:55 PM,33.8,8.6,35,29.95,6.2,ENE,17.3,-,N/A,,Mostly Cloudy,70,2013-03-24 19:55:00
9:25 PM,33.8,10.4,38,29.95,6.2,ENE,18.4,29.9,N/A,,Mostly Cloudy,70,2013-03-24 20:25:00
9:55 PM,32.0,10.4,41,29.95,6.2,ENE,16.1,-,N/A,,Mostly Cloudy,70,2013-03-24 20:55:00
10:00 PM,33,10,25,29.98,28,ENE,15.7,,,,Mostly Cloudy,70,2013-03-24 21:00:00
10:25 PM,32.0,10.4,41,29.98,6.2,East,18.4,29.9,N/A,,Overcast,80,2013-03-24 21:25:00
10:55 PM,32.0,10.4,41,29.98,6.2,ENE,16.1,-,N/A,,Mostly Cloudy,70,2013-03-24 21:55:00
11:11 PM,32.0,10.4,41,29.98,6.2,East,15.0,-,N/A,,Overcast,80,2013-03-24 22:11:00
11:25 PM,32.0,12.2,44,29.98,6.2,ENE,13.8,25.3,N/A,,Overcast,70,2013-03-24 22:25:00
11:55 PM,32.0,12.2,44,29.98,6.2,ENE,15.0,-,N/A,,Mostly Cloudy,70,2013-03-24 22:55:00